CAPE
115 60 179 331 702 578 239 174 56 41 68 93 60 60 177 58 172 120 26 58 0 43 595 840 1598 1873 2128 2387 2904 2562 2189 1977 2035 1978 1998 2098 1893 1844 1813 1752 1873 1756 1758 1646 1610 1618 1459 1402 1455
342 448 383 260 800 147 134 125 100 209 232 176 114 97 161 57 109 76 340 178 21 395 573 946 1742 2220 2141 2323 2630 2498 1940 2074 1990 2102 2059 2014 1853 1836 1739 1955 1691 1848 1768 1569 1681 1606 1490 1191 1133
569 310 253 585 325 255 248 161 305 254 183 169 176 211 267 78 182 65 60 177 440 514 648 1264 1547 2156 2113 2106 2295 2507 2343 2103 2074 2010 1996 2018 1806 1706 1766 1709 1893 1571 1735 1973 1747 1664 1483 1395 1321
406 423 261 1133 284 301 261 321 328 347 257 182 216 293 128 135 178 142 268 393 481 617 846 1094 1806 1793 2122 1923 1888 1829 1964 2073 2196 1981 1859 1767 1719 1799 1846 2062 1900 1867 1565 1589 1694 1631 1521 1490 1291
680 802 743 548 200 351 401 425 376 354 304 238 185 125 88 85 229 212 293 338 530 571 866 1087 2175 2296 2082 1928 1874 1895 2069 2219 2048 1880 1738 1688 1679 1804 1869 2124 1717 2039 1750 1554 1497 1558 1523 1447 1205
1088 383 549 188 73 183 573 496 362 315 305 268 264 189 282 296 321 291 370 318 424 470 653 981 1857 1921 2142 1977 1935 1925 1976 1982 1986 1924 1783 1714 1720 1736 1745 1756 1874 1987 1815 1527 1422 1371 1324 1476 1599
892 468 232 106 107 107 568 507 451 340 384 275 312 551 442 319 350 386 332 295 339 410 493 699 1049 1581 1870 2214 1992 1923 1832 1832 1904 1957 1903 1795 1648 1636 1634 1558 1714 1693 1680 1581 1403 1337 1367 1468 1622
525 330 284 194 162 221 650 595 575 233 357 242 287 390 543 366 382 466 507 389 373 468 443 661 931 1105 1334 1745 1849 1879 1907 1942 1879 1865 1884 1772 1688 1673 1857 1846 1641 1833 1510 1478 1410 1377 1483 1664 1743
395 462 339 228 232 528 746 729 495 224 317 256 242 325 529 454 444 499 471 375 523 495 420 436 661 943 1056 988 1237 1654 1835 1869 2007 1953 1820 1622 1923 1959 1858 1346 1910 1574 1439 1313 1406 1157 1535 1786 1940
436 571 293 158 147 427 829 765 584 327 326 314 356 313 479 417 534 641 679 670 758 529 419 374 466 697 981 696 1299 1249 855 874 1190 1633 1765 1844 2117 2212 1869 1687 1675 1682 1457 1495 1389 1389 1096 1472 1474
244 393 280 131 92 358 792 861 692 374 281 371 535 512 524 481 604 655 686 768 830 599 427 336 443 754 839 672 1043 1107 829 1013 1522 2012 2049 1940 1933 2132 1929 1879 1805 2003 1587 1533 1568 1707 1386 1303 1266
234 128 423 205 36 107 660 880 869 490 231 216 580 506 554 571 624 623 628 670 753 802 617 488 641 890 884 695 796 807 413 722 835 1152 1781 1697 1761 1941 2131 1816 1772 2055 1402 1479 1468 1411 1460 1466 1330
223 32 109 191 46 22 287 737 702 736 313 259 634 580 620 646 684 656 648 612 688 748 704 731 925 1218 1204 1148 709 566 459 353 434 866 1130 1187 1454 1946 2128 2170 2020 1883 1823 1405 1432 1602 1297 903 789
5 6 1 0 21 0 143 454 738 805 654 526 648 681 682 689 749 771 678 635 655 626 598 651 809 1069 1201 1290 1284 1121 849 389 564 495 651 1247 1464 1855 1331 1763 1728 1776 1930 2048 1307 1364 1152 912 1036
0 0 0 0 0 0 106 346 722 885 886 861 749 759 689 695 742 775 716 626 624 613 666 792 996 1002 1394 1423 1538 1478 651 480 350 286 733 1056 1374 1838 2333 1908 1732 1532 1498 1646 1424 1165 1018 1483 954
0 0 0 0 0 0 39 208 664 966 1099 1048 879 757 626 676 625 617 489 484 523 569 801 945 865 974 1408 1506 1588 1209 578 364 202 153 611 1077 1382 2004 2452 1938 1818 2149 1495 1381 1658 1611 1413 861 50
0 0 0 0 0 0 61 110 241 934 1058 1144 1077 786 624 602 573 542 552 598 627 729 895 1102 1088 831 1184 1490 1417 1142 733 635 165 334 791 1217 1596 2141 2614 1897 1804 2443 2110 1235 1378 1395 1358 891 321
0 0 0 0 0 8 127 103 73 559 798 1059 1121 894 789 611 554 519 583 611 707 768 862 1086 1110 1182 1428 1349 1513 961 601 413 169 398 732 1019 1708 2324 2696 2164 2140 2601 1837 1315 1422 1480 759 307 211
0 0 0 0 0 0 29 72 93 107 580 665 1056 1033 954 795 580 537 607 538 604 804 974 1184 1231 1964 1414 1255 1082 770 452 336 218 512 1079 1988 2608 2621 2761 2646 2625 2340 1999 1670 1680 1524 1268 326 118
0 0 0 0 0 0 0 0 6 7 203 490 846 1053 1038 885 670 621 666 610 659 908 1191 1544 1544 2065 1971 1416 1360 722 436 241 346 928 1831 2501 2545 2834 2575 2577 2104 2246 1815 2054 1875 1694 571 382 105
0 0 0 0 0 0 0 0 0 0 8 125 459 880 967 968 792 699 607 683 640 876 1322 1709 2155 2106 2192 2289 1324 1128 654 715 706 1327 1969 2372 2394 2490 2771 2583 2466 2187 2250 1598 2088 2031 1269 285 0
0 0 0 0 0 0 0 9 26 13 33 171 273 726 960 1002 942 743 608 604 711 999 1368 1775 2173 2406 2304 2155 1807 2434 973 644 831 1507 1472 1779 2277 2255 2261 2766 2538 2594 2021 1872 2083 1788 1394 1248 0
0 0 0 0 0 0 0 0 0 0 1 133 367 489 913 1009 1053 906 743 602 642 889 1242 1633 2190 2806 2894 2624 2608 1869 1936 572 1085 1235 2626 3133 2879 2426 2107 2357 2554 2707 2631 2401 2463 2048 1940 1019 60
0 0 0 0 0 0 0 0 0 0 0 15 196 383 781 893 1003 1113 1031 613 757 831 1152 1557 2476 3520 3243 2657 2333 3381 2854 1806 1452 2131 1793 1759 1745 1762 2466 2219 2384 2635 2755 2673 2737 2434 2058 1565 503
0 0 0 0 0 0 0 0 0 0 0 0 17 257 593 977 969 1082 1192 1092 760 875 1189 1616 3110 3651 3271 2650 2740 2816 3209 3009 3297 2967 2065 2474 1381 1433 2520 2539 2445 2767 3115 2675 2837 2683 1976 1887 1172
0 0 0 0 0 0 0 0 0 0 0 0 0 2 440 747 963 1007 1231 1333 1249 1044 1687 2143 3079 3358 2759 2747 3517 3672 3795 2061 2059 2794 2047 1784 1417 1278 1677 2095 2495 2848 2758 2943 2975 2515 2055 1747 1686
0 0 0 0 0 0 0 0 0 0 0 0 0 0 0 435 820 959 1085 1260 1467 1597 2189 2624 3207 3596 3564 2892 3814 3824 3603 3405 2315 3209 3621 2197 2868 1468 1715 1951 2595 2619 2681 3004 2943 2420 2049 1650 1865
0 0 0 0 0 0 0 0 0 0 0 0 0 0 0 81 646 883 899 1083 1270 1506 1845 2475 3242 3586 3469 2673 3112 2958 3422 3564 3555 3642 3678 3456 3225 2735 1916 2238 2312 2577 2730 3110 3023 2432 2028 1972 1574
0 0 0 0 0 0 0 0 0 0 0 0 0 0 0 92 459 877 1015 1000 1155 1307 1379 1976 2583 3105 3012 3124 3324 3466 3429 3056 3299 2981 3608 3755 3582 3663 3019 2822 2457 2386 2894 3051 3044 2841 2014 2078 1831
0 0 0 0 0 0 0 0 0 0 0 0 0 0 0 1 119 368 477 790 1005 1259 1339 1495 1830 2109 2401 2869 3427 3474 3571 3485 3125 3510 3509 3408 3792 3813 3799 3567 3121 2656 2651 3005 3033 2823 2066 2078 1869
CIN
-81 -66 -15 -1 -0 -0 -0 -2 -41 -60 -40 -9 -0 -4 -7 -50 -8 -5 -5 -2 -0 -6 -0 -0 -0 -0 -0 -0 -0 -0 -0 -0 -0 -0 -0 -0 -0 -0 -0 -0 -0 -0 -0 -0 -0 -0 -0 -0 -0
-29 -3 -7 -8 -0 -1 -0 -0 -7 -0 -0 -2 -0 -0 -2 -18 -26 -28 -0 -0 -38 -0 -0 -0 -0 -0 -0 -0 -0 -0 -0 -0 -0 -0 -0 -0 -0 -0 -0 -0 -0 -0 -0 -0 -0 -0 -0 -6 -9
-8 -30 -33 -0 -0 -0 -0 -0 -0 -0 -1 -0 -0 -0 -1 -20 -17 -49 -41 -0 -0 -0 -0 -0 -0 -0 -0 -0 -0 -0 -0 -0 -0 -0 -0 -0 -0 -0 -0 -2 -0 -3 -0 -0 -0 -0 -4 -7 -9
-30 -24 -49 -0 -2 -0 -0 -0 -0 -0 -0 -10 -0 -1 -9 -17 -27 -46 -2 -2 -0 -0 -0 -0 -0 -0 -0 -0 -0 -0 -0 -0 -0 -0 -0 -0 -0 -0 -0 -0 -0 -0 -0 -1 -0 -1 -4 -8 -13
-8 -6 -0 -0 -5 -0 -0 -0 -0 -0 -0 -1 -0 -18 -19 -29 -20 -4 -0 -0 -0 -0 -0 -0 -0 -0 -0 -0 -0 -0 -0 -0 -0 -0 -0 -0 -0 -0 -0 -1 -0 -0 -0 -3 -10 -5 -10 -12 -11
-3 -69 -0 -1 -0 -0 -0 -0 -0 -0 -9 -27 -11 -26 -17 -6 -5 -2 -0 -0 -0 -0 -0 -0 -0 -0 -0 -0 -0 -0 -0 -0 -0 -0 -0 -0 -0 -0 -0 -2 -1 -0 -0 -8 -12 -15 -18 -15 -9
-18 -13 -1 -0 -0 -1 -0 -0 -0 -0 -10 -23 -28 -13 -22 -20 -1 -2 -3 -0 -0 -0 -0 -0 -0 -0 -0 -0 -0 -0 -0 -0 -0 -0 -0 -0 -1 -3 -2 -7 -6 -8 -7 -8 -12 -14 -14 -13 -10
-65 -37 -0 -0 -14 -10 -5 -1 -4 -9 -17 -56 -30 -49 -51 -54 -8 -0 -0 -0 -1 -0 -0 -0 -0 -0 -0 -0 -0 -0 -0 -0 -0 -0 -0 -5 -12 -14 -9 -15 -16 -10 -16 -10 -16 -16 -16 -15 -16
-88 -1 -0 -0 -0 -0 -8 -5 -20 -30 -42 -58 -36 -24 -42 -62 -20 -1 -0 -0 -0 -0 -0 -0 -1 -0 -0 -0 -0 -0 -0 -0 -0 -2 -7 -32 -0 -0 -0 -27 -15 -15 -22 -22 -23 -32 -23 -22 -26
-38 -0 -0 -8 -11 -0 -2 -0 -17 -20 -27 -34 -38 -38 -50 -61 -34 -7 -0 -0 -0 -0 -0 -0 -1 -0 -0 -0 -0 -0 -1 -0 -0 -0 -0 -0 -0 -0 -1 -18 -21 -13 -19 -22 -27 -30 -37 -59 -1
-36 -7 -7 -16 -26 -5 -0 -0 -7 -5 -11 -13 -33 -60 -64 -55 -31 -9 -0 -0 -0 -1 -1 -1 -3 -0 -0 -0 -0 -0 -0 -0 -0 -0 -0 -0 -0 -0 -0 -0 -0 -0 -13 -0 -7 -8 -0 -0 -0
-34 -26 -11 -5 -29 -18 -0 -0 -2 -11 -8 -14 -31 -57 -63 -61 -45 -24 -9 -5 -0 -0 -1 -1 -5 -1 -0 -3 -5 -0 -3 -1 -0 -0 -2 -0 -0 -0 -0 -0 -0 -0 -0 -0 -0 -0 -0 -0 -0
-41 -37 -25 -27 -38 -24 -16 -5 -0 -4 -28 -26 -41 -73 -48 -27 -31 -26 -15 -9 -6 -8 -5 -0 -3 -2 -2 -4 -4 -1 -5 -14 -1 -1 -4 -0 -0 -0 -0 -0 -0 -0 -0 -0 -0 -0 -0 -0 -0
-16 -96 -12 -0 -30 -2 -12 -7 -8 -7 -28 -39 -57 -70 -64 -27 -30 -17 -10 -7 -13 -20 -19 -12 -16 -12 -7 -4 -4 -3 -9 -13 -12 -6 -7 -18 -1 -0 -0 -0 -0 -0 -0 -1 -1 -0 -0 -0 -2
-0 -0 -0 -0 -0 -0 -23 -7 -14 -6 -55 -40 -49 -62 -65 -56 -15 -24 -24 -23 -22 -16 -15 -13 -12 -17 -9 -7 -3 -3 -16 -20 -17 -14 -23 -22 -14 -0 -1 -0 -0 -0 -5 -0 -0 -0 -3 -0 -6
-0 -0 -0 -0 -0 -0 -33 -0 -5 -19 -33 -35 -49 -66 -76 -71 -57 -41 -43 -40 -29 -15 -11 -14 -12 -10 -8 -4 -2 -5 -25 -31 -31 -29 -6 -19 -19 -8 -0 -0 -0 -0 -0 -0 -0 -0 -0 -0 -137
-0 -0 -0 -0 -0 -0 -19 -0 -0 -21 -17 -24 -48 -60 -69 -78 -62 -54 -45 -42 -21 -22 -16 -13 -12 -19 -11 -5 -5 -15 -36 -41 -48 -19 -4 -15 -14 -1 -0 -0 -0 -0 -0 -0 -0 -0 -1 -0 -0
-0 -0 -0 -0 -0 -64 -21 -0 -5 -11 -21 -19 -38 -63 -58 -78 -83 -73 -45 -34 -23 -21 -27 -21 -16 -13 -8 -9 -7 -18 -44 -61 -75 -27 -6 -16 -8 -0 -0 -0 -0 -0 -0 -0 -0 -0 -0 -0 -2
-0 -0 -0 -0 -0 -0 -25 -1 -1 -14 -35 -17 -43 -64 -55 -68 -60 -62 -53 -41 -28 -16 -20 -24 -21 -4 -16 -20 -26 -46 -75 -72 -74 -37 -13 -2 -1 -1 -2 -0 -0 -0 -0 -0 -0 -0 -0 -0 -17
-0 -0 -0 -0 -0 -0 -0 -0 -19 -10 -28 -18 -35 -59 -52 -34 -45 -68 -72 -65 -58 -39 -26 -13 -17 -2 -7 -21 -23 -51 -72 -63 -50 -10 -0 -0 -1 -1 -6 -0 -0 -0 -0 -0 -0 -0 -0 -0 -1
-0 -0 -0 -0 -0 -0 -0 -0 -0 -0 -21 -26 -27 -40 -49 -42 -43 -61 -81 -84 -87 -67 -50 -28 -7 -7 -3 -0 -17 -27 -46 -33 -26 -0 -0 -0 -2 -0 -3 -0 -0 -0 -0 -0 -0 -0 -0 -0 -0
-0 -0 -0 -0 -0 -0 -0 -11 -4 -8 -15 -34 -21 -29 -42 -47 -39 -38 -60 -83 -87 -90 -67 -42 -11 -2 -0 -0 -2 -0 -61 -65 -32 -0 -0 -0 -0 -0 -0 -0 -6 -2 -0 -0 -0 -0 -0 -2 -0
-0 -0 -0 -0 -0 -0 -0 -0 -0 -0 -9 -14 -24 -31 -44 -38 -37 -28 -63 -86 -97 -87 -75 -67 -27 -3 -0 -2 -0 -24 -4 -64 -6 -0 -0 -0 -0 -0 -0 -0 -0 -0 -0 -0 -0 -0 -0 -0 -11
-0 -0 -0 -0 -0 -0 -0 -0 -0 -0 -0 -26 -16 -22 -36 -31 -44 -44 -44 -61 -68 -71 -53 -39 -16 -2 -0 -9 -26 -0 -1 -13 -7 -0 -0 -0 -0 -0 -0 -0 -0 -0 -0 -0 -0 -0 -0 -6 -47
-0 -0 -0 -0 -0 -0 -0 -0 -0 -0 -0 -0 -15 -17 -26 -32 -40 -44 -47 -42 -73 -81 -80 -71 -10 -8 -8 -11 -9 -11 -0 -1 -0 -0 -0 -0 -0 -0 -0 -0 -0 -0 -0 -0 -0 -0 -1 -5 -30
-0 -0 -0 -0 -0 -0 -0 -0 -0 -0 -0 -0 -0 -4 -17 -31 -46 -59 -60 -54 -64 -79 -71 -56 -18 -22 -45 -31 -4 -1 -1 -35 -20 -0 -0 -0 -0 -0 -1 -0 -0 -0 -0 -0 -0 -0 -1 -20 -27
-0 -0 -0 -0 -0 -0 -0 -0 -0 -0 -0 -0 -0 -0 -0 -21 -36 -60 -55 -64 -75 -79 -78 -82 -56 -59 -51 -80 -20 -13 -17 -14 -22 -0 -0 -1 -0 -0 -0 -0 -0 -0 -0 -0 -0 -1 -9 -30 -24
-0 -0 -0 -0 -0 -0 -0 -0 -0 -0 -0 -0 -0 -0 -0 -29 -17 -46 -76 -64 -86 -89 -101 -114 -113 -108 -106 -104 -68 -74 -45 -33 -25 -4 -0 -0 -0 -1 -0 -0 -0 -0 -0 -0 -0 -0 -10 -20 -39
-0 -0 -0 -0 -0 -0 -0 -0 -0 -0 -0 -0 -0 -0 -0 -28 -19 -42 -60 -75 -100 -108 -127 -150 -161 -159 -154 -127 -100 -67 -66 -77 -56 -42 -13 -8 -5 -0 -5 -0 -0 -0 -0 -0 -0 -0 -12 -28 -36
-0 -0 -0 -0 -0 -0 -0 -0 -0 -0 -0 -0 -0 -0 -0 -2 -16 -29 -38 -67 -79 -126 -138 -151 -187 -183 -209 -167 -137 -126 -93 -73 -76 -54 -42 -35 -14 -9 -2 -0 -0 -0 -0 -0 -0 -3 -29 -44 -59
Wind_Speed
14 12 6 6 4 6 5 6 5 8 7 3 7 3 11 11 7 6 9 15 17 15 13 14 14 15 16 16 16 16 16 15 14 13 12 11 10 10 10 11 11 9 11 9 8 7 7 6 6
13 13 5 3 7 3 8 4 6 6 9 11 10 8 8 7 8 12 14 22 19 16 15 15 13 15 16 16 15 15 15 14 13 12 11 11 10 10 9 11 9 9 9 9 8 8 7 6 6
13 11 5 6 2 5 8 3 8 8 8 6 6 7 6 6 15 8 17 25 19 16 14 16 15 16 16 15 15 13 13 13 12 11 10 10 10 9 9 7 8 10 9 8 7 6 6 6 5
6 5 6 10 9 8 7 4 10 9 7 4 9 10 9 7 15 14 26 22 18 17 17 17 16 16 16 15 14 14 13 12 11 10 10 9 8 8 6 6 9 9 8 7 6 5 5 5 4
4 5 5 6 8 4 4 6 8 6 7 8 4 8 10 12 14 25 22 19 19 17 18 16 15 14 15 14 14 13 12 11 11 10 9 7 7 7 6 7 8 8 7 6 5 5 5 4 5
6 4 8 3 8 5 8 8 6 4 7 8 9 15 6 14 22 21 21 19 19 17 18 18 15 14 13 14 13 11 11 11 9 8 7 7 7 6 5 5 6 7 6 6 5 5 4 5 5
8 6 2 2 6 7 8 8 4 6 8 7 15 12 12 19 20 21 19 17 17 17 17 16 16 14 12 12 12 10 10 10 8 7 6 6 5 4 3 3 3 4 4 4 4 4 4 4 6
6 6 6 4 3 11 9 7 6 6 9 14 11 8 16 22 22 21 19 17 15 17 16 15 14 13 12 12 10 9 9 8 7 6 6 5 5 3 3 4 4 1 2 2 3 4 4 4 5
3 8 4 6 4 10 12 8 6 7 13 7 8 7 23 26 23 21 18 17 14 16 16 16 15 13 11 10 10 9 8 7 6 7 5 9 5 4 5 8 3 2 2 2 3 4 4 6 8
10 10 5 5 4 3 13 8 10 8 14 13 9 17 25 26 22 22 21 19 19 18 17 15 15 14 11 9 10 8 8 9 7 5 5 4 4 3 6 2 3 5 2 1 1 0 4 10 6
10 11 3 6 8 2 12 10 9 8 13 17 16 22 27 26 22 21 20 20 20 19 15 16 14 13 12 8 7 5 5 4 5 5 5 2 1 2 1 2 5 5 4 2 6 5 2 3 3
10 10 7 3 3 1 7 10 11 10 4 14 17 23 27 27 24 23 21 20 19 19 17 16 14 11 11 7 7 6 5 5 5 6 5 2 4 3 1 2 2 3 3 1 1 2 5 4 4
16 8 6 8 7 4 6 10 9 13 8 14 19 23 26 24 23 21 20 19 19 18 17 16 15 13 11 9 7 6 5 6 6 4 6 3 3 1 3 2 4 2 2 1 2 2 0 1 4
9 14 8 9 9 7 8 9 12 11 12 15 20 24 25 25 24 21 20 19 19 18 18 16 16 14 12 10 8 6 6 5 5 5 4 5 4 1 2 4 2 2 4 4 1 3 1 3 3
14 10 11 11 12 6 8 10 13 11 16 18 20 21 23 24 23 22 21 19 19 17 17 17 16 15 14 12 11 8 7 7 6 6 6 6 5 5 4 2 5 2 2 1 4 1 2 4 2
16 17 15 15 16 12 13 11 17 16 20 20 22 21 22 24 24 22 21 20 19 18 18 17 15 16 15 12 10 8 8 7 7 6 6 7 7 6 5 4 2 6 2 4 2 3 2 3 4
15 15 19 14 11 10 16 11 14 19 19 19 20 22 21 22 24 23 22 20 19 19 18 18 17 16 16 13 10 10 9 8 7 7 6 6 7 7 7 5 2 2 3 2 0 1 4 3 2
18 19 16 19 14 13 16 16 7 19 19 19 19 20 21 23 26 23 23 21 19 19 18 17 15 16 15 11 10 9 9 9 8 8 7 7 7 8 7 6 2 4 1 1 2 1 2 1 3
16 16 20 16 10 13 16 15 13 13 18 18 19 20 22 23 23 22 22 21 20 19 19 19 18 16 13 12 12 11 10 9 9 9 9 8 9 9 9 7 5 6 3 2 4 4 4 3 2
22 17 20 13 7 12 15 15 14 12 17 18 19 22 23 22 22 22 23 22 22 21 20 19 19 18 15 12 11 10 9 10 10 9 9 8 9 8 8 8 5 5 1 2 2 2 1 1 1
23 23 18 16 14 15 14 16 15 14 14 15 19 20 21 22 23 24 24 24 23 22 22 20 19 18 17 15 10 9 9 9 10 10 9 9 9 9 8 8 7 4 5 3 4 4 3 0 2
25 23 19 18 12 13 16 17 21 22 17 18 18 20 22 24 24 23 25 25 25 23 21 21 19 19 17 17 13 13 12 11 11 11 10 9 11 10 9 8 7 8 6 2 4 4 3 4 4
20 16 18 20 17 17 22 11 15 13 17 19 19 21 23 24 25 25 26 26 26 23 22 20 20 19 18 18 16 13 14 12 9 10 10 10 10 11 11 10 7 8 8 6 4 5 6 5 5
13 16 13 15 16 21 23 21 19 17 18 18 19 19 22 23 25 25 24 23 23 22 21 20 20 19 19 19 20 17 16 14 12 11 10 10 10 10 13 12 9 10 8 7 7 6 7 6 4
22 20 11 13 18 19 22 23 18 8 19 20 18 20 22 23 23 24 24 23 23 25 24 21 20 20 20 21 20 20 18 17 15 12 11 10 10 9 10 13 11 10 10 9 8 7 7 8 6
28 24 11 17 15 17 17 22 23 23 20 6 19 17 19 21 21 23 26 24 24 25 24 23 20 20 22 22 20 18 19 15 14 14 13 11 11 10 10 12 13 13 11 10 9 8 8 8 8
26 28 26 12 5 9 14 19 16 13 21 24 23 19 18 21 23 25 26 26 25 24 23 23 22 22 22 24 19 19 19 19 16 16 14 13 11 10 12 14 15 14 12 12 11 9 9 9 9
20 24 22 16 16 19 13 19 13 22 22 21 23 22 20 21 22 23 23 25 24 26 25 25 24 24 24 22 20 18 19 19 18 15 16 15 13 14 12 14 15 14 13 13 13 10 11 11 9
23 19 25 17 17 12 11 12 15 18 17 23 22 22 20 20 20 21 22 23 24 22 23 24 25 24 23 22 21 20 19 21 19 18 17 17 15 14 15 14 15 15 14 14 14 12 12 13 12
28 24 29 14 22 18 15 7 7 6 16 18 19 20 19 19 18 19 20 20 21 23 23 25 25 25 25 21 21 22 20 20 20 19 19 18 17 16 16 15 16 16 16 15 15 16 14 15 15
Wind_Direction
161 168 177 198 245 238 70 87 77 127 141 91 103 85 74 37 20 100 149 152 146 157 154 150 135 128 123 124 123 124 125 126 126 121 122 112 105 98 85 90 87 90 93 89 95 101 105 113 113
171 167 219 264 255 164 86 84 119 105 91 112 114 134 121 79 88 123 131 152 162 155 160 142 136 133 130 127 124 129 129 127 125 122 119 116 105 91 82 84 84 86 96 104 97 97 105 112 121
170 187 254 258 236 55 74 95 102 115 132 147 105 47 60 88 125 120 144 148 158 156 141 124 140 137 134 129 128 129 130 128 125 123 118 105 100 96 90 86 72 80 77 86 93 95 98 96 99
161 203 229 257 80 87 31 100 131 137 123 131 116 89 91 124 128 160 152 154 151 153 145 135 142 138 136 132 133 134 134 131 126 120 106 103 103 95 91 70 79 92 92 92 93 90 85 81 81
247 244 246 247 91 86 76 112 159 148 129 147 158 102 100 121 134 143 148 162 152 148 134 144 142 141 136 138 138 139 137 131 122 114 111 111 102 90 62 51 80 92 89 91 92 88 81 70 78
226 265 241 87 86 83 89 128 145 115 120 107 122 124 119 144 141 153 159 161 155 147 147 141 139 144 143 143 139 139 137 128 122 122 118 111 98 89 75 51 51 75 83 92 90 86 79 70 70
274 257 337 349 66 126 111 148 151 117 136 142 132 122 124 142 152 156 162 160 152 153 147 151 152 149 150 142 142 142 139 130 131 134 128 117 109 100 86 79 62 66 80 95 101 99 85 67 80
263 264 245 129 125 100 125 142 108 141 107 118 134 153 155 152 158 157 159 155 161 159 150 157 155 161 162 153 151 150 142 140 147 150 146 148 154 173 168 207 92 31 96 105 111 107 101 104 95
261 256 187 103 208 114 146 132 123 94 136 158 156 148 143 152 157 158 155 163 164 164 166 165 166 166 172 163 154 165 155 160 165 175 174 203 160 147 170 61 15 73 114 106 94 97 87 159 132
230 276 63 52 33 158 163 156 143 153 154 146 134 114 145 157 163 165 165 166 171 170 174 172 176 166 172 175 153 181 166 185 186 186 169 224 90 81 336 76 88 107 104 136 137 167 210 226 153
206 252 124 113 47 313 161 173 161 156 173 167 154 148 157 164 172 174 173 173 174 174 180 176 180 170 182 178 181 178 181 178 176 190 215 108 260 134 160 130 169 140 180 179 197 196 240 78 353
239 238 261 130 6 311 190 157 178 175 85 159 151 159 163 172 177 179 177 176 177 179 185 181 177 180 195 178 193 185 186 191 208 177 190 199 227 148 299 5 96 206 139 48 129 70 17 297 141
222 226 247 250 253 299 199 190 197 187 130 152 152 166 173 180 180 183 182 178 180 183 185 184 180 186 193 200 195 210 204 193 202 194 181 235 251 221 270 6 300 346 117 40 284 88 72 236 96
192 225 237 244 232 246 220 194 195 189 147 153 164 174 177 186 185 185 188 185 186 187 185 184 189 188 195 200 207 204 213 203 223 210 200 208 259 180 277 282 247 282 55 94 334 7 359 219 130
220 222 223 228 226 221 216 210 204 161 168 164 174 178 183 186 187 190 189 189 189 190 185 189 192 191 197 200 201 210 204 214 216 216 200 222 230 209 272 208 271 318 60 217 206 207 280 249 108
218 226 236 223 207 201 207 214 186 167 180 178 175 180 185 188 189 191 191 192 189 194 191 192 195 192 195 201 201 212 210 219 217 222 215 206 220 239 237 235 260 65 325 304 137 226 238 128 117
204 222 217 188 205 189 203 238 156 173 191 186 183 180 186 188 193 192 194 195 193 195 191 195 197 199 195 201 208 211 208 220 223 222 219 202 229 223 247 249 237 127 169 259 16 271 258 91 177
205 217 231 210 187 203 203 237 158 176 198 194 188 185 187 192 197 193 197 195 197 192 195 198 197 203 196 199 209 211 213 218 222 222 226 221 228 225 227 246 247 259 346 194 143 233 66 25 11
228 221 227 209 212 221 230 231 233 189 197 206 190 193 194 197 193 194 196 196 197 198 196 197 201 196 196 201 201 206 209 209 218 223 224 227 234 232 227 258 195 242 267 30 192 184 160 160 56
231 229 227 228 161 233 233 233 231 213 205 208 197 196 203 193 191 194 194 197 198 198 200 199 204 200 202 202 208 210 209 212 216 214 218 223 221 217 227 228 212 202 290 235 185 209 204 153 76
222 226 229 231 201 230 256 251 233 211 211 211 209 201 202 198 194 191 195 198 197 200 201 200 201 202 203 215 201 203 217 229 211 217 213 211 216 212 216 224 252 206 247 207 185 184 240 141 157
219 216 237 241 222 241 197 253 223 220 205 206 208 201 201 199 196 194 194 198 200 201 200 201 200 202 202 203 202 204 209 207 212 213 215 214 210 218 218 229 218 213 237 255 186 198 250 259 170
231 220 219 235 242 250 248 248 255 195 216 208 210 204 202 200 195 199 198 198 203 200 200 200 200 201 203 197 216 198 217 212 210 219 216 212 210 222 224 227 223 220 224 191 238 183 215 187 285
211 222 222 230 234 239 235 240 242 232 213 221 209 207 201 203 199 199 203 199 203 203 203 200 200 204 203 198 202 206 205 220 211 209 214 222 217 210 221 229 223 221 220 214 206 199 201 228 236
201 195 195 208 217 235 226 235 235 252 233 215 218 204 201 200 202 198 199 201 200 202 202 202 198 201 202 204 205 209 212 207 219 213 211 223 216 215 211 215 215 212 211 212 212 194 204 202 212
196 204 211 211 219 226 215 233 234 233 239 238 235 216 197 200 202 202 198 200 203 203 200 202 196 200 203 205 208 207 210 215 216 214 229 218 227 214 211 201 210 214 206 210 199 201 218 203 210
191 214 217 253 184 271 225 215 241 254 219 223 230 222 206 196 198 204 203 201 199 201 203 199 199 199 201 202 203 206 208 215 216 221 207 226 221 222 208 207 209 211 209 207 197 219 205 209 212
210 203 213 227 243 241 224 232 226 210 215 219 214 212 205 198 199 203 206 206 204 201 201 199 201 200 201 204 204 207 208 210 215 211 216 215 218 218 210 207 209 210 208 204 202 203 202 211 212
199 200 214 226 232 217 235 232 209 229 210 215 211 210 202 197 196 201 204 207 208 206 202 202 201 202 201 202 203 206 207 208 210 214 211 213 213 206 213 203 210 210 207 204 204 216 209 209 215
204 205 202 216 209 240 282 262 113 227 215 215 214 208 211 206 202 202 203 204 204 205 208 204 205 205 206 204 202 203 204 206 208 210 210 207 211 207 204 206 206 208 209 205 208 211 210 209 213